Time,TemperatureF,DewpointF,PressureIn,WindDirection,WindDirectionDegrees,WindSpeedMPH,WindSpeedGustMPH,Humidity,HourlyPrecipIn,Conditions,Clouds,dailyrainin,SoftwareType,DateUTC
2013-08-05 00:02:00,61.0,58.0,29.85,NW,315,0.0,0.0,90,0.00,,,0.00,,2013-08-05 04:02:00,
2013-08-05 00:12:00,62.0,59.0,29.85,NW,315,0.0,0.0,90,0.00,,,0.00,,2013-08-05 04:12:00,
2013-08-05 00:22:00,61.0,58.0,29.85,NW,315,0.0,0.0,90,0.00,,,0.00,,2013-08-05 04:22:00,
2013-08-05 00:32:00,61.0,58.0,29.85,NW,315,0.0,0.0,90,0.00,,,0.00,,2013-08-05 04:32:00,
2013-08-05 00:43:00,61.0,58.0,29.85,North,0,0.0,0.0,91,0.00,,,0.00,,2013-08-05 04:43:00,
2013-08-05 00:52:00,61.0,58.0,29.85,North,0,0.0,0.0,91,0.00,,,0.00,,2013-08-05 04:52:00,
2013-08-05 01:02:00,61.0,58.0,29.85,NW,315,0.0,0.0,91,0.00,,,0.00,,2013-08-05 05:02:00,
2013-08-05 01:12:00,61.0,58.0,29.85,NW,315,0.0,0.0,90,0.00,,,0.00,,2013-08-05 05:12:00,
2013-08-05 01:22:00,61.0,58.0,29.85,NNW,338,0.0,0.0,90,0.00,,,0.00,,2013-08-05 05:22:00,
2013-08-05 01:32:00,61.0,58.0,29.85,NW,315,0.0,0.0,91,0.00,,,0.00,,2013-08-05 05:32:00,
2013-08-05 01:42:00,61.0,58.0,29.85,NNW,338,0.0,0.0,91,0.00,,,5.19,,2013-08-05 05:42:00,
2013-08-05 01:53:00,61.0,58.0,29.85,NNW,338,0.0,0.0,91,0.00,,,0.00,,2013-08-05 05:53:00,
2013-08-05 02:02:00,61.0,58.0,29.85,North,0,0.0,0.0,91,0.00,,,0.00,,2013-08-05 06:02:00,
2013-08-05 02:12:00,61.0,58.0,29.85,NNW,338,0.0,0.0,91,0.00,,,0.00,,2013-08-05 06:12:00,
2013-08-05 02:22:00,61.0,58.0,29.85,NNE,22,0.0,0.0,91,0.00,,,0.00,,2013-08-05 06:22:00,
2013-08-05 02:32:00,60.0,57.0,29.85,NW,315,0.0,0.0,91,0.00,,,0.00,,2013-08-05 06:32:00,
2013-08-05 02:43:00,60.0,57.0,29.85,NW,315,0.0,0.0,91,0.00,,,0.00,,2013-08-05 06:43:00,
2013-08-05 02:52:00,60.0,57.0,29.85,North,0,0.0,0.0,90,0.00,,,0.00,,2013-08-05 06:52:00,
2013-08-05 03:02:00,60.0,57.0,29.85,North,0,0.0,0.0,90,0.00,,,0.00,,2013-08-05 07:02:00,
2013-08-05 03:12:00,59.0,56.0,29.85,North,0,0.0,0.0,90,0.00,,,0.00,,2013-08-05 07:12:00,
2013-08-05 03:22:00,59.0,56.0,29.85,NW,315,0.0,0.0,90,0.00,,,5.19,,2013-08-05 07:22:00,
2013-08-05 03:32:00,59.0,56.0,29.85,NW,315,0.0,0.0,90,0.00,,,5.19,,2013-08-05 07:32:00,
2013-08-05 03:43:00,59.0,56.0,29.88,NW,315,0.0,0.0,90,0.00,,,0.00,,2013-08-05 07:43:00,
2013-08-05 03:53:00,59.0,56.0,29.88,NW,315,0.0,0.0,90,0.00,,,0.00,,2013-08-05 07:53:00,
2013-08-05 04:02:00,59.0,56.0,29.88,NW,315,0.0,0.0,90,0.00,,,0.00,,2013-08-05 08:02:00,
2013-08-05 04:12:00,59.0,56.0,29.88,North,0,0.0,7.0,90,0.00,,,0.00,,2013-08-05 08:12:00,
2013-08-05 04:22:00,59.0,56.0,29.88,NW,315,0.0,0.0,90,0.00,,,0.00,,2013-08-05 08:22:00,
2013-08-05 04:34:00,59.0,56.0,29.88,NNW,338,0.0,0.0,90,0.00,,,0.00,,2013-08-05 08:34:00,
2013-08-05 04:53:00,59.0,56.0,29.88,West,270,0.0,0.0,90,0.00,,,0.00,,2013-08-05 08:53:00,
2013-08-05 05:07:00,59.0,56.0,29.88,North,0,0.0,4.0,89,0.00,,,0.00,,2013-08-05 09:07:00,
2013-08-05 05:19:00,59.0,56.0,29.91,NNW,338,0.0,0.0,89,0.00,,,0.00,,2013-08-05 09:19:00,
2013-08-05 05:27:00,59.0,56.0,29.91,NNW,338,0.0,0.0,89,0.00,,,0.00,,2013-08-05 09:27:00,
2013-08-05 05:40:00,59.0,56.0,29.91,West,270,0.0,0.0,89,0.00,,,0.00,,2013-08-05 09:40:00,
2013-08-05 05:47:00,59.0,55.0,29.91,NW,315,0.0,0.0,88,0.00,,,0.00,,2013-08-05 09:47:00,
2013-08-05 05:53:00,59.0,55.0,29.91,NW,315,0.0,0.0,88,0.00,,,0.00,,2013-08-05 09:53:00,
2013-08-05 06:12:00,59.0,55.0,29.91,NNW,338,0.0,0.0,88,0.00,,,0.00,,2013-08-05 10:12:00,
2013-08-05 06:28:00,59.0,55.0,29.91,West,270,0.0,0.0,87,0.00,,,0.00,,2013-08-05 10:28:00,
2013-08-05 06:48:00,59.0,55.0,29.94,West,270,0.0,0.0,87,0.00,,,0.00,,2013-08-05 10:48:00,
2013-08-05 07:09:00,59.0,55.0,29.94,NW,315,0.0,6.0,87,0.00,,,0.00,,2013-08-05 11:09:00,
2013-08-05 07:29:00,60.0,56.0,29.94,NW,315,6.0,6.0,87,0.00,,,0.00,,2013-08-05 11:29:00,
2013-08-05 07:38:00,60.0,56.0,29.94,NW,315,6.0,6.0,87,0.00,,,0.00,,2013-08-05 11:38:00,
2013-08-05 08:08:00,61.0,56.0,29.94,NNW,338,0.0,2.0,85,0.00,,,0.00,,2013-08-05 12:08:00,
2013-08-05 08:17:00,62.0,57.0,29.94,North,0,0.0,7.0,84,0.00,,,0.00,,2013-08-05 12:17:00,
2013-08-05 08:28:00,62.0,57.0,29.94,North,0,0.0,7.0,84,0.00,,,0.00,,2013-08-05 12:28:00,
2013-08-05 08:33:00,63.0,57.0,29.94,North,0,0.0,0.0,82,0.00,,,0.00,,2013-08-05 12:33:00,
2013-08-05 08:49:00,63.0,57.0,29.94,North,0,0.0,4.0,80,0.00,,,0.00,,2013-08-05 12:49:00,
2013-08-05 09:14:00,64.0,57.0,29.94,North,0,0.0,7.0,78,0.00,,,0.00,,2013-08-05 13:14:00,
2013-08-05 09:28:00,65.0,58.0,29.94,NW,315,0.0,8.0,77,0.00,,,0.00,,2013-08-05 13:28:00,
2013-08-05 09:39:00,65.0,58.0,29.94,NW,315,0.0,8.0,77,0.00,,,0.00,,2013-08-05 13:39:00,
2013-08-05 09:44:00,65.0,58.0,29.94,NW,315,0.0,8.0,77,0.00,,,0.00,,2013-08-05 13:44:00,
2013-08-05 09:53:00,66.0,57.0,29.94,North,0,0.0,4.0,74,0.00,,,0.00,,2013-08-05 13:53:00,
2013-08-05 10:06:00,66.0,57.0,29.94,NNW,338,0.0,6.0,73,0.00,,,0.00,,2013-08-05 14:06:00,
2013-08-05 10:17:00,66.0,56.0,29.94,North,0,0.0,6.0,71,0.00,,,0.00,,2013-08-05 14:17:00,
2013-08-05 10:28:00,66.0,56.0,29.94,North,0,0.0,6.0,71,0.00,,,0.00,,2013-08-05 14:28:00,
2013-08-05 10:40:00,66.0,56.0,29.94,North,0,0.0,6.0,71,0.00,,,0.00,,2013-08-05 14:40:00,
2013-08-05 10:48:00,67.0,57.0,29.94,NW,315,0.0,0.0,70,0.00,,,0.00,,2013-08-05 14:48:00,
2013-08-05 10:54:00,67.0,57.0,29.94,NW,315,0.0,0.0,70,0.00,,,0.00,,2013-08-05 14:54:00,
2013-08-05 11:08:00,68.0,57.0,29.94,SW,225,0.0,0.0,67,0.00,,,0.00,,2013-08-05 15:08:00,
2013-08-05 11:17:00,68.0,57.0,29.94,SW,225,0.0,0.0,67,0.00,,,0.00,,2013-08-05 15:17:00,
2013-08-05 11:39:00,68.0,55.0,29.94,NW,315,0.0,0.0,64,0.00,,,0.00,,2013-08-05 15:39:00,
2013-08-05 11:48:00,69.0,56.0,29.94,WNW,292,0.0,4.0,64,0.00,,,0.00,,2013-08-05 15:48:00,
2013-08-05 11:59:00,69.0,56.0,29.94,WNW,292,0.0,4.0,64,0.00,,,0.00,,2013-08-05 15:59:00,
2013-08-05 12:10:00,69.0,56.0,29.94,WNW,292,0.0,4.0,64,0.00,,,0.00,,2013-08-05 16:10:00,
2013-08-05 12:27:00,70.0,56.0,29.94,WNW,292,0.0,0.0,62,0.00,,,0.00,,2013-08-05 16:27:00,
2013-08-05 12:33:00,70.0,56.0,29.94,North,0,0.0,7.0,62,0.00,,,0.00,,2013-08-05 16:33:00,
2013-08-05 12:57:00,71.0,57.0,29.94,WSW,248,0.0,0.0,61,0.00,,,0.00,,2013-08-05 16:57:00,
2013-08-05 13:17:00,72.0,57.0,29.94,NNE,22,0.0,0.0,60,0.00,,,0.00,,2013-08-05 17:17:00,
2013-08-05 13:22:00,72.0,55.0,29.94,WNW,292,0.0,0.0,55,0.00,,,0.00,,2013-08-05 17:22:00,
2013-08-05 13:38:00,72.0,55.0,29.94,West,270,0.0,3.0,55,0.00,,,0.00,,2013-08-05 17:38:00,
2013-08-05 13:50:00,73.0,55.0,29.94,WNW,292,0.0,0.0,54,0.00,,,0.00,,2013-08-05 17:50:00,
2013-08-05 13:57:00,73.0,55.0,29.94,NNW,338,0.0,0.0,54,0.00,,,0.00,,2013-08-05 17:57:00,
2013-08-05 14:13:00,73.0,54.0,29.94,NNW,338,0.0,2.0,51,0.00,,,0.00,,2013-08-05 18:13:00,
2013-08-05 14:26:00,74.0,55.0,29.94,SW,225,0.0,0.0,51,0.00,,,5.19,,2013-08-05 18:26:00,
2013-08-05 14:38:00,74.0,54.0,29.94,NNW,338,2.0,5.0,50,0.00,,,0.00,,2013-08-05 18:38:00,
2013-08-05 14:44:00,74.0,54.0,29.94,West,270,0.0,0.0,49,0.00,,,5.19,,2013-08-05 18:44:00,
2013-08-05 14:54:00,74.0,54.0,29.94,WNW,292,0.0,0.0,49,0.00,,,0.00,,2013-08-05 18:54:00,
2013-08-05 15:05:00,75.0,55.0,29.94,NW,315,0.0,0.0,49,0.00,,,0.00,,2013-08-05 19:05:00,
2013-08-05 15:14:00,76.0,55.0,29.94,North,0,0.0,0.0,48,0.00,,,0.00,,2013-08-05 19:14:00,
2013-08-05 15:51:00,76.0,55.0,29.94,WSW,248,0.0,4.0,48,0.00,,,0.00,,2013-08-05 19:51:00,
2013-08-05 18:28:00,77.0,53.0,29.94,West,270,0.0,0.0,44,0.00,,,0.00,,2013-08-05 22:28:00,
2013-08-05 18:38:00,75.0,54.0,29.94,West,270,0.0,0.0,48,0.00,,,0.00,,2013-08-05 22:38:00,
2013-08-05 18:44:00,75.0,54.0,29.94,West,270,0.0,0.0,48,0.00,,,0.00,,2013-08-05 22:44:00,
2013-08-05 18:53:00,75.0,54.0,29.94,West,270,0.0,0.0,48,0.00,,,0.00,,2013-08-05 22:53:00,
2013-08-05 19:07:00,72.0,56.0,29.97,SW,225,0.0,0.0,57,0.00,,,0.00,,2013-08-05 23:07:00,
2013-08-05 19:28:00,70.0,55.0,29.97,SW,225,0.0,0.0,59,0.00,,,0.00,,2013-08-05 23:28:00,
2013-08-05 19:46:00,69.0,56.0,29.97,SSW,202,0.0,0.0,63,0.00,,,5.19,,2013-08-05 23:46:00,
2013-08-05 19:57:00,69.0,57.0,29.97,North,0,0.0,0.0,65,0.00,,,5.19,,2013-08-05 23:57:00,
2013-08-05 20:02:00,68.0,56.0,29.97,SSW,202,0.0,0.0,66,0.00,,,0.00,,2013-08-06 00:02:00,
2013-08-05 20:15:00,68.0,57.0,29.97,SSW,202,0.0,0.0,67,0.00,,,0.00,,2013-08-06 00:15:00,
2013-08-05 20:24:00,68.0,57.0,29.97,SSW,202,0.0,0.0,67,0.00,,,0.00,,2013-08-06 00:24:00,
2013-08-05 20:37:00,68.0,57.0,29.97,SSW,202,0.0,0.0,67,0.00,,,0.00,,2013-08-06 00:37:00,
2013-08-05 20:45:00,66.0,56.0,30.00,SSW,202,0.0,0.0,71,0.00,,,0.00,,2013-08-06 00:45:00,
2013-08-05 20:57:00,66.0,56.0,30.00,SSW,202,0.0,0.0,71,0.00,,,0.00,,2013-08-06 00:57:00,
2013-08-05 21:14:00,64.0,56.0,30.00,SSW,202,0.0,0.0,74,0.00,,,0.00,,2013-08-06 01:14:00,
2013-08-05 21:28:00,64.0,56.0,30.00,SSW,202,0.0,0.0,75,0.00,,,0.00,,2013-08-06 01:28:00,
2013-08-05 21:41:00,63.0,55.0,30.00,SSW,202,0.0,0.0,76,0.00,,,0.00,,2013-08-06 01:41:00,
2013-08-05 21:50:00,63.0,55.0,30.00,SSW,202,0.0,0.0,76,0.00,,,0.00,,2013-08-06 01:50:00,
2013-08-05 21:57:00,63.0,55.0,30.00,SSW,202,0.0,0.0,76,0.00,,,0.00,,2013-08-06 01:57:00,
2013-08-05 22:10:00,63.0,55.0,30.00,SSW,202,0.0,0.0,76,0.00,,,0.00,,2013-08-06 02:10:00,
2013-08-05 22:33:00,61.0,54.0,30.03,SSW,202,0.0,0.0,79,0.00,,,0.00,,2013-08-06 02:33:00,
2013-08-05 22:53:00,60.0,54.0,30.03,SSW,202,0.0,0.0,80,0.00,,,0.00,,2013-08-06 02:53:00,
2013-08-05 23:02:00,60.0,54.0,30.03,SSW,202,0.0,0.0,80,0.00,,,0.00,,2013-08-06 03:02:00,
2013-08-05 23:26:00,59.0,53.0,30.03,SSW,202,0.0,0.0,80,0.00,,,0.00,,2013-08-06 03:26:00,
2013-08-05 23:35:00,59.0,53.0,30.03,SSW,202,0.0,0.0,80,0.00,,,0.00,,2013-08-06 03:35:00,
2013-08-05 23:45:00,59.0,53.0,30.03,SSW,202,0.0,0.0,80,0.00,,,0.00,,2013-08-06 03:45:00,
2013-08-05 23:52:00,59.0,53.0,30.03,SSW,202,0.0,0.0,80,0.00,,,0.00,,2013-08-06 03:52:00,